Location: Boda
(47.1872°N, 9.5454°E)
Time: 08:06:23
(UTC+00:00)

Cosmos 1464 Rocket - Pass Details

Date: 14 May 2021
Orbit: 952 x 1001 km, 82.9° (Epoch: 16 June)

Event Time Altitude Azimuth Distance (km) Brightness Sun altitude
Rises 03:05:40 0° 347° (NNW) 3,645 7.3 -6.7°
Reaches altitude 10° 03:08:12 10° 344° (NNW) 2,699 6.6 -6.4°
Maximum altitude 03:14:12 56° 268° (W) 1,132 4.1 -5.6°
Drops below altitude 10° 03:20:14 10° 191° (SSW) 2,708 5.9 -4.7°
Sets 03:22:47 0° 188° (S) 3,658 6.6 -4.4°
